#timestamp,LO_Frequency,Hit,StdDev 
1615046415.2,286047001.7,N
1615046435.0,286047002.6,N
1615046435.9,286047002.6,N
1615046455.8,286047002.4,N
1615046475.6,286046998.6,N
1615046495.5,286046997.4,N
1615046515.3,286046999.3,N
1615046535.1,286046999.0,N
1615046555.9,286046998.6,N
1615046575.7,286046998.2,N
1615046595.6,286046996.5,N
1615046615.4,286046997.4,N
1615046635.2,286046993.7,N
1615046655.1,286046995.7,N
1615046656.0,286046995.7,N
1615046675.8,286046993.0,N
1615046695.6,286046989.0,Y
1615046715.5,286046993.6,P
1615046735.3,286046993.4,N
1615046755.2,286046995.9,N
1615046775.9,286046994.0,N
1615046795.7,286046992.4,Y
1615046815.6,286046993.8,P
1615046835.4,286046994.1,P
1615046855.2,286046998.7,N
1615046875.1,286047000.1,N
1615046876.0,286047000.1,N
1615046895.8,286047005.7,N
1615046915.7,286047007.7,N
1615046935.5,286047009.0,N
1615046955.3,286047008.3,N
1615046975.2,286047008.2,N
1615046995.0,286047008.7,N
1615046995.9,286047008.7,N
1615047015.8,286047006.0,N
1615047035.6,286047005.8,N
1615047055.4,286047010.0,N
1615047075.3,286047010.1,N
1615047095.1,286047007.7,N
1615047115.8,286047008.4,N
1615047135.7,286047008.0,N
1615047155.5,286047004.2,N
1615047175.4,286046998.2,N
1615047195.2,286047000.4,N
1615047215.0,286047002.2,N
1615047215.9,286047002.2,N
1615047235.8,286047004.0,N
1615047255.6,286047000.8,N
1615047275.4,286047000.1,N
1615047295.3,286046998.2,N
1615047315.1,286046995.0,N
1615047335.9,286046997.4,N
1615047355.7,286046997.4,N
1615047375.5,286046999.5,N
1615047395.4,286046998.3,N
1615047415.2,286047000.8,N
1615047435.0,286046998.6,N
1615047435.9,286046998.6,N
1615047455.8,286046998.9,N
1615047475.6,286046996.5,N
1615047495.5,286046994.9,N
1615047515.3,286046997.1,N
1615047535.1,286046997.4,N
1615047555.9,286046997.7,N
1615047575.7,286046995.5,N
1615047595.5,286046996.4,N
1615047615.4,286046997.6,N
1615047635.2,286046997.6,N
1615047655.1,286046996.9,N
1615047656.0,286046996.9,N
1615047675.8,286046999.3,N
1615047695.6,286047001.2,N
1615047715.5,286047000.9,N
1615047735.3,286047001.9,N
1615047755.1,286047002.6,N
1615047775.9,286047001.6,N
1615047795.7,286047004.3,N
1615047815.6,286047002.3,N
1615047835.4,286047000.1,N
1615047855.2,286046999.1,N
1615047875.1,286046998.6,N
1615047876.0,286046998.6,N
1615047895.8,286046998.4,N
1615047915.6,286047001.2,N
1615047935.5,286046998.4,N
1615047955.3,286046998.2,N
1615047975.2,286046999.8,N
1615047995.9,286047005.0,N
1615048015.7,286047005.6,N
1615048035.6,286047004.6,N
1615048055.4,286047006.9,N
1615048075.2,286047006.8,N
1615048095.1,286047006.7,N
1615048096.0,286047006.7,N
1615048115.8,286047006.0,N
1615048135.7,286047002.3,N
1615048155.5,286047001.5,N
1615048175.3,286047000.3,N
1615048195.2,286047000.1,N
1615048215.9,286047001.9,N
1615048235.7,286047000.6,N
1615048255.6,286046999.8,N
1615048275.4,286047001.7,N
1615048295.3,286047003.5,N
1615048315.1,286047003.8,N
1615048316.0,286047003.8,N
1615048335.8,286047001.7,N
1615048355.7,286047002.1,N
1615048375.5,286047000.5,N
1615048395.3,286047001.2,N
1615048415.2,286047001.0,N
1615048435.0,286047002.0,N
1615048435.9,286047002.0,N
1615048455.8,286047002.3,N
1615048475.6,286047000.2,N
1615048495.4,286047000.9,N
1615048515.3,286047002.3,N
1615048535.1,286047002.3,N
1615048555.8,286046996.5,N
1615048575.7,286046998.5,N
1615048595.5,286047000.5,N
1615048615.4,286046998.1,N
1615048635.2,286047001.0,N
1615048655.0,286047000.7,N
1615048656.0,286047000.7,N
1615048675.8,286047001.7,N
1615048695.6,286047002.6,N
1615048715.5,286047001.7,N
1615048735.3,286047004.2,N
1615048755.1,286047004.5,N
1615048775.9,286047002.9,N
1615048795.7,286047003.7,N
1615048815.6,286047000.9,N
1615048835.4,286047000.7,N
1615048855.2,286047000.3,N
1615048875.1,286047001.2,N
1615048876.0,286047001.2,N
1615048895.8,286046996.5,N
1615048915.6,286046998.9,N
1615048935.5,286046996.5,N
1615048955.3,286047001.1,N
1615048975.2,286047002.8,N
1615048995.9,286047002.7,N
1615049015.7,286047003.7,N
1615049035.6,286047007.4,Y
1615049055.4,286047007.4,P
1615049075.2,286047006.9,N
1615049095.1,286047008.3,N
1615049096.0,286047008.3,N
1615049115.8,286047010.8,Y
1615049135.7,286047003.0,P
1615049155.5,286047007.5,P
1615049175.3,286047008.0,P
1615049195.2,286047006.3,Y
1615049215.0,286046998.3,P
1615049215.9,286046998.3,N
1615049235.8,286046998.1,N
1615049255.6,286046998.1,N
1615049275.4,286046999.8,N
1615049295.3,286047001.8,N
1615049315.1,286047005.6,N
1615049335.8,286047006.8,N
1615049355.7,286047012.7,Y
1615049375.5,286047009.3,P
1615049395.4,286047008.4,N
1615049415.2,286047012.4,P
1615049435.0,286047011.8,N
1615049435.9,286047011.8,Y
1615049455.8,286047002.6,P
1615049475.6,286047002.0,N
1615049495.5,286047003.2,N
1615049515.3,286047004.5,N
1615049535.1,286047011.9,Y
1615049555.9,286047006.4,P
1615049575.7,286047006.7,P
1615049595.6,286047006.2,P
1615049615.4,286047006.6,Y
1615049635.2,286047004.8,P
1615049655.1,286047005.0,P
1615049656.0,286047005.0,P
1615049675.8,286047008.5,Y
1615049695.7,286047003.4,P
1615049715.5,286047003.1,P
1615049735.4,286047007.3,P
1615049755.2,286047009.0,Y
1615049775.0,286047001.8,P
1615049775.9,286047001.8,N
1615049795.8,286047001.5,N
1615049815.7,286047005.1,Y
1615049835.5,286047003.5,P
1615049855.4,286047006.4,P
1615049875.2,286047006.5,P
1615049895.0,286047007.3,Y
1615049895.9,286047007.3,P
1615049915.8,286047005.4,P
1615049935.6,286047008.0,P
1615049955.5,286047006.3,Y
1615049975.3,286047000.0,P
1615049995.2,286047002.8,N
